Read MPEC 2006-D63
Read MPEC 2006-E01
M.P.E.C. 2006-D64 Issued 2006 Feb. 28, 23:34 UT
The Minor Planet Electronic Circulars contain information on unusual
minor planets and routine data on comets. They are published
on behalf of Commission 20 of the International Astronomical Union by the
Minor Planet Center, Smithsonian Astrophysical Observatory,
Cambridge, MA 02138, U.S.A.
Supported in part by the Brinson Foundation
Supported in part by the TABASGO Foundation
Prepared using the Tamkin Foundation Computer Network
MPC@CFA.HARVARD.EDU
URL http://cfa-www.harvard.edu/iau/mpc.html ISSN 1523-6714
2006 DT63
Observations:
K06D63T* C2006 02 27.38222 11 58 34.75 -02 50 12.2 20.9 V ED064G96
K06D63T C2006 02 27.38806 11 58 34.96 -02 50 21.0 20.7 V ED064G96
K06D63T C2006 02 27.39378 11 58 35.18 -02 50 30.0 20.8 V ED064G96
K06D63T C2006 02 27.39959 11 58 35.40 -02 50 39.0 20.5 V ED064G96
K06D63T C2006 02 27.41576 11 58 35.97 -02 51 03.5 21.2 V ED064G96
K06D63T C2006 02 27.41669 11 58 36.01 -02 51 05.1 20.7 V ED064G96
K06D63T C2006 02 27.41762 11 58 36.04 -02 51 06.3 20.9 V ED064G96
K06D63T C2006 02 27.41849 11 58 36.04 -02 51 08.0 21.0 V ED064G96
K06D63T C2006 02 27.41939 11 58 36.08 -02 51 09.4 21.3 V ED064G96
K06D63T C2006 02 27.42028 11 58 36.12 -02 51 10.8 20.7 V ED064G96
K06D63T C2006 02 27.42117 11 58 36.15 -02 51 12.0 21.1 V ED064G96
K06D63T C2006 02 27.42208 11 58 36.19 -02 51 13.4 21.1 V ED064G96
K06D63T C2006 02 27.46561 11 58 37.81 -02 52 20.8 21.1 V ED064G96
K06D63T C2006 02 27.46738 11 58 37.92 -02 52 23.7 20.6 V ED064G96
K06D63T C2006 02 27.46919 11 58 37.95 -02 52 26.0 21.1 V ED064G96
K06D63T C2006 02 27.47098 11 58 37.99 -02 52 28.8 21.3 V ED064G96
K06D63T C2006 02 28.24539 11 59 15.88 -03 12 24.1 ED064G96
K06D63T C2006 02 28.25300 11 59 16.14 -03 12 35.8 ED064G96
K06D63T C2006 02 28.25666 11 59 16.30 -03 12 41.7 20.8 V ED064G96
Observer details:
G96 Mt. Lemmon Survey. Observer R. Hill. Measurers E. C. Beshore,
E. J. Christensen, G. J. Garradd, A. R. Gibbs, A. D. Grauer, R. E. Hill,
R. A. Kowalski, S. M. Larson, R. H. McNaught. 1.5-m reflector + CCD.
Orbital elements:
2006 DT63 Earth MOID = 0.2681 AU
Epoch 2006 Mar. 6.0 TT = JDT 2453800.5 MPC
M 0.11624 (2000.0) P Q
n 0.27723002 Peri. 192.82854 -0.98047658 -0.19373837
a 2.3293918 Node 335.92134 +0.18690718 -0.86510120
e 0.4589702 Incl. 4.72845 +0.06108498 -0.46267198
P 3.56 H 22.2 G 0.15 U 9
Residuals in seconds of arc
060227 G96 0.0 0.2- 060227 G96 0.4- 0.0 060227 G96 0.0 0.1+
060227 G96 0.0 0.0 060227 G96 0.3- 0.0 060227 G96 0.4- 0.1+
060227 G96 0.2+ 0.2- 060227 G96 0.2- 0.1- 060228 G96 0.1+ 0.0
060227 G96 0.3+ 0.2- 060227 G96 0.2- 0.1+ 060228 G96 0.2- 0.1+
060227 G96 0.1+ 0.3+ 060227 G96 0.1- 0.1+ 060228 G96 0.1+ 0.1-
060227 G96 0.2+ 0.1+ 060227 G96 0.0 0.2-
060227 G96 0.1+ 0.3+ 060227 G96 0.6+ 0.4-
Ephemeris:
2006 DT63 a,e,i = 2.33, 0.46, 5 q = 1.2603
Date TT R. A. (2000) Decl. Delta r Elong. Phase V
2006 02 24 11 55.75 -01 22.7 0.295 1.264 155.5 18.9 21.0
2006 03 06 12 03.11 -05 38.2 0.279 1.260 161.6 14.4 20.7
2006 03 16 12 07.93 -09 34.1 0.276 1.265 166.9 10.3 20.6
2006 03 26 12 11.35 -12 49.1 0.284 1.278 169.1 8.5 20.6
2006 04 05 12 14.86 -15 11.9 0.305 1.299 166.4 10.4 20.9
2006 04 15 12 19.92 -16 46.8 0.338 1.327 161.1 14.2 21.3
2006 04 25 12 27.19 -17 45.3 0.382 1.362 155.0 18.2 21.7
Timothy B. Spahr (C) Copyright 2006 MPC M.P.E.C. 2006-D64
Read MPEC 2006-D63
Read MPEC 2006-E01
Our Web policy. Index to the CBAT/MPC/ICQ pages.